Theta_e
325 326 318 313 300 295 291 295 296 297 296 298 302 301 300 301 301 296 312 318 323 326 328 331 338 339 341 343 344 344 344 345 345 344 342 340 339 338 338 337 337 338 339 340 343 343 341 340 342
320 320 314 306 295 290 292 294 295 298 300 300 302 301 300 299 305 307 306 317 320 323 324 326 336 337 339 338 338 339 338 340 341 340 338 335 335 335 335 333 333 334 335 337 339 338 336 335 336
318 318 307 300 294 290 290 294 296 298 299 299 298 300 299 301 303 306 307 315 317 318 321 326 332 335 335 334 335 336 335 335 336 334 332 331 329 328 327 326 325 326 327 331 334 332 331 331 332
312 307 302 293 291 294 293 294 298 298 298 299 299 295 299 304 306 306 309 314 313 315 318 326 328 330 330 329 330 331 331 334 329 327 325 325 323 322 321 321 321 321 322 325 324 323 322 322 324
307 303 295 291 292 294 294 299 299 298 297 298 298 296 297 302 304 306 309 312 310 311 314 318 325 326 326 325 325 325 326 327 323 321 320 319 318 318 319 319 319 318 319 320 319 319 318 318 318
300 299 291 289 293 295 296 300 299 298 297 297 296 295 298 302 301 301 304 307 309 309 311 313 321 323 322 322 322 321 321 320 319 318 316 316 316 315 316 316 316 316 316 317 317 317 316 316 316
298 297 293 292 294 295 297 298 297 297 297 298 299 296 295 298 299 298 299 302 306 307 307 306 309 314 318 319 319 319 317 316 315 314 313 312 311 311 310 312 313 314 314 315 315 315 314 315 315
300 296 291 291 293 294 297 297 298 297 298 300 301 296 295 299 301 298 296 296 300 303 303 303 304 304 304 306 316 316 314 312 311 310 309 309 309 308 307 307 310 311 312 312 312 312 311 310 311
303 292 290 293 294 294 297 296 297 298 296 298 301 298 299 301 300 296 294 294 296 299 299 299 301 301 301 302 308 312 310 309 308 306 307 305 298 299 301 306 308 308 308 309 309 308 307 306 305
298 293 295 298 295 294 297 297 297 295 295 296 297 297 300 299 298 296 293 293 293 294 296 297 297 299 299 302 301 299 301 300 300 299 298 299 297 298 301 304 305 304 303 304 305 305 303 300 296
298 294 298 299 299 298 297 295 298 296 294 296 297 298 298 296 296 296 295 295 295 294 295 296 297 296 297 296 297 296 297 296 297 296 297 297 296 295 295 294 294 294 297 293 295 294 294 294 294
296 300 301 302 300 298 296 298 297 297 299 301 300 300 299 297 296 296 295 295 294 293 295 295 295 296 294 296 297 296 296 295 295 295 296 295 293 292 292 292 292 291 291 290 290 291 292 292 293
297 298 301 301 300 299 299 297 296 297 299 300 301 299 298 298 297 297 297 297 295 295 294 294 294 295 295 295 295 295 295 295 295 293 294 294 292 290 291 291 290 290 290 289 289 290 290 291 292
297 298 298 299 299 299 298 295 297 298 300 300 300 298 297 298 297 296 295 296 296 297 295 294 295 295 296 294 293 294 293 294 294 292 292 293 291 290 290 290 290 289 289 289 289 289 289 289 290
297 295 295 297 297 297 298 294 294 301 297 298 298 298 297 298 298 298 298 298 299 298 296 294 294 294 295 294 293 293 293 293 292 292 291 291 291 289 289 288 288 288 288 288 288 288 288 288 289
292 291 288 294 296 297 296 290 296 299 296 297 297 295 296 298 299 300 300 299 299 296 294 294 296 294 294 293 292 293 292 292 292 291 290 290 290 289 288 287 287 287 287 287 286 286 286 286 286
288 285 287 292 297 295 293 291 296 297 295 296 295 295 296 297 297 300 300 299 299 297 295 293 294 293 293 292 292 292 290 291 290 290 289 289 289 289 287 287 286 287 286 286 287 286 285 284 285
285 285 289 289 292 292 290 292 296 296 294 295 294 293 295 298 299 300 299 300 299 296 294 293 293 292 292 292 290 290 289 289 289 288 289 289 288 288 287 286 286 287 286 285 285 284 285 284 284
289 287 286 293 295 293 293 293 295 297 294 293 296 297 298 298 301 297 299 299 298 294 292 292 291 292 292 291 289 288 289 288 287 287 288 288 287 287 286 286 285 285 284 284 285 284 284 283 284
290 288 288 292 293 291 291 291 295 294 296 297 296 297 299 299 296 296 296 296 295 292 292 291 291 291 292 292 291 288 288 286 287 287 287 288 287 287 286 285 284 284 283 283 283 283 282 283 283
291 288 289 288 291 290 288 286 290 294 296 298 299 299 300 299 295 294 293 295 294 292 291 291 291 291 292 291 289 286 286 285 285 285 286 286 287 286 285 284 284 283 283 282 282 282 282 281 281
288 292 291 290 285 284 286 282 287 291 292 294 297 297 297 293 294 293 293 291 293 292 292 292 291 290 291 290 290 287 287 286 288 288 286 285 286 285 285 284 283 282 282 282 282 283 281 281 280
290 291 289 287 285 284 285 282 285 290 289 292 296 297 297 295 294 293 294 295 294 292 291 291 290 290 290 290 290 288 287 287 282 283 285 284 284 284 284 283 282 281 281 281 281 281 281 281 280
291 288 287 285 283 280 283 284 284 285 290 291 295 296 296 295 294 294 294 293 291 290 290 290 290 289 290 289 289 288 287 283 282 283 284 284 283 283 282 283 281 281 281 280 281 280 280 280 280
288 285 278 276 275 279 285 282 288 289 291 293 294 295 296 293 292 290 291 291 290 288 289 290 289 288 289 289 288 287 287 285 283 283 284 283 282 281 281 281 280 279 279 280 280 279 279 279 278
285 287 279 272 277 282 281 278 285 292 294 294 294 295 292 293 292 291 291 291 290 290 288 289 288 289 288 288 288 287 286 286 285 284 284 284 283 282 281 280 279 279 279 278 278 278 278 278 279
285 283 288 281 270 275 284 285 290 289 291 291 292 288 291 292 291 291 289 290 290 289 289 289 289 289 288 288 288 286 286 286 285 283 283 283 282 281 280 279 278 278 278 278 277 277 277 278 278
287 288 281 281 272 270 282 279 285 289 293 294 288 289 290 291 291 291 290 290 289 290 290 289 290 289 288 287 287 286 286 286 285 282 282 280 280 279 278 277 277 277 277 277 276 276 277 276 277
283 284 285 284 281 279 278 283 286 288 288 288 289 289 290 291 291 292 292 291 291 289 289 289 288 288 287 286 286 285 284 284 283 282 281 280 279 278 277 277 276 276 276 276 275 275 275 275 275
287 287 287 282 281 280 282 283 295 291 290 289 291 291 290 292 293 291 291 292 289 289 288 288 288 288 287 287 285 284 282 281 281 280 279 278 278 277 277 276 276 276 275 275 274 274 274 274 274
Wind_Speed
4 6 2 5 5 5 4 5 2 3 3 2 2 4 6 3 2 5 4 7 10 10 6 6 10 9 10 11 10 12 11 12 13 14 13 12 11 9 10 11 11 10 9 10 13 14 13 12 12
3 3 4 2 4 2 6 3 4 2 4 4 6 3 6 1 4 6 6 8 10 10 7 5 10 11 11 10 10 8 8 9 10 11 11 9 9 11 11 12 12 12 11 10 11 11 11 10 10
3 1 4 3 3 4 4 5 7 4 4 3 3 2 2 5 1 11 6 11 12 9 7 6 11 12 12 11 11 12 11 9 10 10 11 11 11 11 12 12 12 12 11 10 11 11 11 11 11
2 5 5 3 8 8 4 5 6 7 2 2 5 2 2 2 9 9 9 10 10 9 7 9 12 13 12 12 12 13 12 12 12 12 12 12 11 11 11 12 12 13 12 12 11 11 11 11 11
4 3 1 2 7 5 2 8 7 5 5 4 4 4 2 2 7 13 10 9 11 7 7 6 13 13 13 12 12 12 13 13 12 12 11 11 11 12 12 12 13 13 13 12 12 12 12 12 11
4 3 2 3 5 3 4 8 9 6 4 4 2 2 4 6 10 9 9 9 10 10 7 6 9 11 12 13 13 13 13 13 12 12 12 12 12 12 12 12 12 12 12 12 13 13 13 13 13
4 3 5 5 6 4 2 3 5 7 7 7 6 6 0 5 7 9 9 9 9 9 8 6 6 8 11 13 13 14 14 13 13 13 13 12 12 12 13 13 13 14 13 15 15 15 15 16 17
3 3 4 5 4 5 4 3 2 4 5 1 5 7 6 8 11 9 7 8 9 8 8 8 7 7 6 6 12 14 14 13 13 12 10 11 11 12 12 10 12 13 13 15 15 16 17 17 17
3 3 4 5 2 2 3 4 2 3 2 2 5 3 2 11 12 8 6 7 6 7 9 8 8 7 7 6 7 12 14 13 12 9 7 8 4 6 6 9 10 12 12 13 13 14 15 15 15
4 3 7 4 3 3 3 5 7 2 3 4 4 1 6 12 15 14 10 12 7 10 8 10 9 10 8 7 7 6 6 5 5 5 5 5 5 4 5 7 10 11 11 12 13 13 13 10 5
5 7 4 4 3 3 2 2 5 7 7 9 12 9 11 10 14 15 14 13 16 9 7 10 10 9 9 7 5 3 3 4 4 6 5 5 4 4 3 3 3 3 7 4 6 5 4 5 4
4 8 8 7 3 0 2 5 5 8 13 8 12 10 15 15 18 18 17 15 11 12 13 11 10 9 8 6 7 5 4 4 4 5 6 5 3 4 4 2 3 3 2 4 4 3 4 6 6
5 5 6 7 7 6 1 9 8 13 10 11 9 8 17 15 17 13 14 11 10 14 13 13 11 11 9 8 5 5 5 5 5 5 5 5 5 5 4 3 3 3 3 4 5 5 5 6 7
3 4 7 7 10 6 7 6 4 10 10 14 11 11 12 18 21 11 10 15 16 15 16 14 14 12 9 7 7 6 5 6 5 5 5 6 5 5 4 3 4 3 3 3 3 4 4 4 5
3 8 8 12 10 8 6 10 15 24 3 9 12 12 11 17 12 22 21 19 18 13 15 17 14 12 12 9 7 6 5 6 5 5 6 7 6 6 6 4 4 3 2 4 4 4 4 4 5
2 2 5 7 8 4 9 17 10 13 9 16 15 11 10 15 20 18 16 17 16 13 17 17 15 15 12 9 6 5 5 5 5 5 5 7 6 7 5 4 4 3 3 3 2 3 4 4 4
3 6 8 11 8 7 7 13 12 9 10 14 11 12 12 13 13 15 17 18 18 18 18 19 16 16 13 8 6 6 7 5 5 5 5 7 7 7 5 4 4 4 3 2 2 3 3 3 4
8 7 6 9 5 4 6 19 14 10 5 11 10 10 13 17 23 15 17 16 18 17 18 19 14 15 14 9 6 4 5 4 5 5 5 8 6 7 6 5 5 4 3 2 2 2 1 1 3
5 6 8 19 10 10 18 18 20 20 10 12 17 18 18 19 20 10 16 17 16 15 17 19 18 16 13 9 8 6 8 5 4 5 7 7 6 6 6 4 5 5 4 4 3 1 2 3 5
11 14 15 15 11 11 15 21 17 12 15 16 16 19 22 17 9 9 11 14 19 19 19 19 18 17 14 10 9 5 5 3 3 3 5 7 8 7 6 6 5 5 4 4 3 3 2 2 4
19 14 18 19 10 6 9 11 13 12 12 15 17 20 21 17 13 8 11 17 16 19 21 20 19 19 16 13 8 4 4 3 3 4 6 6 8 8 7 7 5 5 4 4 4 4 4 1 3
21 10 13 11 3 14 5 17 9 8 13 11 17 19 17 11 10 8 11 12 19 19 17 19 19 19 15 15 13 12 11 10 9 9 6 5 8 7 7 7 6 6 4 5 4 4 3 3 2
19 3 5 2 5 6 6 9 5 10 9 11 16 18 19 12 12 12 17 20 16 16 18 17 18 17 15 17 17 13 11 8 3 4 9 6 6 8 8 8 7 6 4 5 5 4 4 3 2
3 1 0 3 3 14 8 10 6 8 12 7 14 14 14 11 8 10 10 10 11 11 14 15 17 18 17 18 17 19 17 10 6 8 10 8 7 7 7 7 7 6 5 5 4 4 4 3 2
2 5 5 5 1 16 12 13 20 7 7 12 13 14 16 8 9 10 13 13 13 14 15 14 17 17 17 19 18 19 17 15 14 13 11 12 9 6 9 8 7 5 6 6 6 4 4 2 2
10 12 9 8 11 22 3 11 8 13 13 11 14 15 6 9 9 12 15 14 14 17 16 16 16 17 18 18 18 15 15 12 11 12 10 11 11 10 10 9 8 8 7 6 6 4 4 4 3
4 7 9 1 2 2 11 14 9 4 11 11 16 3 8 9 9 10 9 12 14 15 18 19 18 18 17 18 15 16 14 16 13 12 11 10 9 8 10 10 9 7 7 8 7 4 4 4 4
7 2 2 2 3 8 18 5 16 14 22 19 6 10 8 6 7 8 9 13 12 14 15 15 16 19 16 16 16 15 16 16 12 11 13 11 9 10 11 10 9 8 7 7 7 5 4 5 4
2 5 5 2 6 15 18 16 7 5 3 3 7 8 9 8 9 10 11 10 13 9 12 14 15 16 16 15 16 16 15 14 11 12 11 11 10 11 11 10 9 9 8 7 6 5 4 5 4
4 9 11 10 12 5 8 15 21 12 9 5 9 6 6 7 8 10 10 12 11 13 12 17 16 17 19 17 14 14 11 11 13 12 11 10 12 10 11 11 10 9 9 8 6 5 4 4 5
Wind_Direction
298 280 301 38 45 67 269 260 93 80 63 43 57 84 125 73 148 202 216 118 121 117 109 101 111 107 98 97 100 104 98 87 89 86 78 69 65 62 59 55 50 50 42 35 32 39 35 29 25
304 296 34 70 94 72 269 213 129 152 162 110 74 6 55 132 123 140 124 153 120 122 115 108 118 119 115 104 90 90 114 88 86 83 81 78 81 76 70 64 57 51 48 46 48 41 35 24 19
286 268 80 109 172 195 217 192 151 145 119 97 88 79 154 182 125 162 198 147 118 120 121 124 125 124 119 115 113 112 117 120 102 99 95 87 78 72 68 63 58 57 50 48 44 37 32 25 20
39 12 14 94 248 264 199 154 148 132 45 75 141 156 51 221 165 175 152 138 119 124 128 135 133 129 125 123 122 119 116 113 108 100 95 90 84 77 68 60 53 49 45 47 42 32 26 23 17
26 66 48 257 268 256 221 154 149 144 162 202 148 227 226 5 115 140 145 138 129 128 128 137 137 134 130 125 121 118 115 115 110 105 98 92 86 76 69 66 61 53 50 44 39 33 25 20 14
12 98 28 250 254 249 191 153 137 153 177 177 161 142 218 142 136 165 140 144 134 138 135 125 129 133 136 136 131 125 121 116 112 109 103 97 90 84 73 67 62 54 53 45 40 31 26 22 22
134 98 228 249 255 298 212 145 156 179 163 213 169 165 39 192 176 158 150 142 131 136 133 130 122 132 143 143 137 132 126 123 124 121 112 108 93 79 66 59 55 46 46 38 37 34 34 29 25
114 97 283 248 242 247 169 115 120 157 242 17 167 218 228 203 169 151 145 143 146 149 151 155 152 144 141 142 137 136 132 132 130 127 118 98 90 85 69 58 56 46 49 39 35 32 28 25 22
58 51 259 261 268 217 188 155 317 146 156 205 210 185 236 134 140 141 148 158 161 172 168 163 164 159 150 137 140 138 141 135 134 130 135 107 106 111 100 81 74 63 56 47 40 36 25 21 15
120 155 236 230 285 282 200 179 181 174 233 236 223 28 120 140 160 173 180 187 185 185 184 172 171 164 160 156 153 156 156 153 156 143 129 129 121 117 100 72 69 66 59 48 37 33 26 19 0
202 212 220 281 308 22 285 249 198 181 235 210 211 192 173 165 179 186 198 197 196 183 176 183 175 167 166 157 166 169 161 159 149 146 144 140 110 92 86 80 63 60 56 46 41 20 19 9 1
226 245 250 276 250 220 259 298 266 206 233 211 223 196 176 182 190 195 200 200 183 185 187 177 175 173 174 159 166 170 159 157 155 155 140 129 117 104 106 109 101 89 61 48 40 27 7 11 359
223 259 270 265 262 227 214 253 246 263 264 252 249 165 186 199 207 211 208 203 189 193 187 184 175 175 173 166 165 165 173 162 165 151 142 138 132 134 135 123 104 76 49 39 25 14 9 2 356
240 252 264 263 252 232 195 257 156 260 228 246 239 234 199 201 205 202 200 202 197 194 188 179 181 175 164 168 170 173 168 162 154 148 146 133 137 140 127 115 89 78 61 46 35 24 22 3 354
281 314 311 257 242 222 123 284 225 248 255 250 245 235 217 217 198 208 207 204 196 195 178 181 174 169 170 174 173 169 170 158 145 153 146 142 143 138 133 126 107 98 74 60 37 22 23 9 351
236 192 287 273 130 202 131 261 246 249 194 235 239 239 231 228 217 217 204 199 190 174 178 175 175 173 170 171 166 165 164 158 155 151 152 159 150 145 140 138 130 122 93 93 62 44 8 10 340
266 237 215 298 189 140 172 254 269 262 199 241 233 236 238 247 235 223 206 194 184 179 173 175 171 169 166 162 161 163 165 165 166 158 165 166 153 150 145 139 130 118 102 75 55 36 42 350 329
212 224 242 237 201 162 198 247 260 265 262 240 248 239 239 243 244 215 208 192 183 178 173 168 166 164 162 159 154 152 165 173 168 170 172 162 160 159 148 146 144 144 136 132 96 81 312 277 297
236 255 238 268 258 203 239 240 250 254 251 240 253 257 253 244 248 214 203 187 171 166 163 168 164 171 163 167 168 167 185 178 179 181 164 163 160 165 160 153 153 158 156 152 127 125 39 10 349
248 259 263 277 269 196 251 251 253 239 247 242 229 249 252 251 250 236 186 175 175 169 169 169 172 172 174 172 176 168 160 180 159 163 167 171 164 170 165 159 169 162 148 131 115 94 47 40 40
247 247 258 254 293 237 284 265 251 245 247 251 254 248 257 249 229 222 178 181 169 171 172 173 174 175 178 173 160 98 90 77 155 195 181 187 169 171 163 166 163 173 166 157 142 123 116 96 13
262 224 256 270 282 272 134 290 220 239 236 238 245 253 249 234 221 201 179 177 179 179 171 172 175 178 178 170 176 181 192 190 199 191 175 166 166 168 165 169 173 180 170 142 140 135 129 127 206
263 208 245 227 240 315 175 283 200 191 235 243 243 250 257 237 208 188 187 189 184 167 173 175 175 179 179 180 187 190 198 198 144 142 164 165 170 169 173 174 176 177 167 153 150 142 155 161 158
130 122 13 28 60 263 179 211 148 191 217 230 244 250 246 239 210 192 183 152 170 169 172 174 176 185 183 183 187 194 195 179 162 171 179 182 179 177 178 175 166 173 171 158 156 156 143 142 173
152 83 307 318 359 257 182 221 253 285 230 214 224 237 239 167 167 164 160 171 172 179 180 180 183 188 187 191 192 193 195 186 188 182 185 176 176 183 189 171 169 168 166 156 146 151 156 176 190
195 181 174 213 260 277 117 250 251 226 236 225 224 224 192 174 183 178 179 182 182 185 186 188 187 192 193 196 198 195 192 193 197 191 180 186 185 182 171 171 164 161 157 152 152 153 164 185 209
176 178 214 358 94 338 258 273 293 294 277 274 247 217 199 201 186 187 177 187 187 190 194 190 190 200 197 199 196 197 193 199 198 191 185 184 173 164 164 161 156 157 154 153 161 171 182 190 204
172 175 90 252 207 242 270 256 269 284 280 279 243 216 207 199 208 200 200 202 199 198 194 196 203 203 200 197 198 198 196 199 194 181 188 179 165 153 156 155 154 159 165 153 155 170 184 197 204
131 254 231 262 189 246 262 272 220 195 236 305 244 220 218 214 215 213 209 215 208 192 190 198 201 201 202 200 199 197 195 191 178 187 186 174 156 157 157 159 159 165 160 162 164 173 187 204 211
197 212 208 236 257 230 266 265 269 313 325 330 304 265 213 203 215 221 211 212 197 194 189 202 204 203 207 201 198 199 180 176 182 185 173 159 162 162 161 161 161 167 168 168 163 172 194 201 220